SQ6MTB Weather Reports


Display with metric or nautical units.
time (UTC)temp
F
wind
direction
speed
MPH
gust
MPH
rain 1hr
in
rain 24hr
in
rain mn
in
humidity
%
barometer
mb
20260509143005 59 99 2.0 6.0 0.00 0.00 0.00 54 1020.8
20260509142533 59 81 2.0 8.0 0.00 0.00 0.00 55 1020.7
20260509142051 59 83 4.0 8.0 0.00 0.00 0.00 53 1020.8
20260509141518 59 154 0.0 4.0 0.00 0.00 0.00 54 1020.7
20260509141027 59 145 1.0 4.0 0.00 0.00 0.00 55 1020.8
20260509140547 59 82 0.0 6.0 0.00 0.00 0.00 55 1020.8
20260509140003 59 61 0.0 4.0 0.00 0.00 0.00 54 1020.8
20260509135530 59 43 2.0 4.0 0.00 0.00 0.00 53 1020.8
20260509135050 59 113 1.0 5.0 0.00 0.00 0.00 54 1020.8
20260509134515 59 78 3.0 9.0 0.00 0.00 0.00 54 1020.9
20260509134038 59 62 4.0 9.0 0.00 0.00 0.00 53 1021.0
20260509133551 60 75 3.0 8.0 0.00 0.00 0.00 52 1020.9
20260509133017 60 63 4.0 8.0 0.00 0.00 0.00 51 1021.0
20260509132538 60 26 3.0 6.0 0.00 0.00 0.00 52 1021.0
20260509132054 60 74 2.0 5.0 0.00 0.00 0.00 52 1021.0
20260509131509 60 327 0.0 5.0 0.00 0.00 0.00 52 1021.0
20260509131037 60 57 2.0 5.0 0.00 0.00 0.00 51 1020.9
20260509130557 60 22 0.0 5.0 0.00 0.00 0.00 53 1021.0
20260509130014 60 284 0.0 5.0 0.00 0.00 0.00 53 1021.0
20260509125530 60 49 0.0 8.0 0.00 0.00 0.00 53 1021.0
20260509125051 60 83 3.0 8.0 0.00 0.00 0.00 52 1021.2
20260509124525 60 339 1.0 6.0 0.00 0.00 0.00 50 1021.2
20260509124034 61 40 1.0 8.0 0.00 0.00 0.00 50 1021.3
20260509123552 61 70 5.0 8.0 0.00 0.00 0.00 51 1021.3
20260509123019 62 126 2.0 6.0 0.00 0.00 0.00 49 1021.3
20260509122536 61 355 3.0 6.0 0.00 0.00 0.00 53 1021.3
20260509122057 61 128 1.0 8.0 0.00 0.00 0.00 50 1021.2
20260509121523 61 24 2.0 8.0 0.00 0.00 0.00 52 1021.2
20260509121040 60 355 2.0 8.0 0.00 0.00 0.00 52 1021.3
20260509120548 60 5 4.0 8.0 0.00 0.00 0.00 53 1021.2
20260509120003 60 55 3.0 8.0 0.00 0.00 0.00 52 1021.2
20260509115529 60 135 0.0 6.0 0.00 0.00 0.00 55 1021.2
20260509115048 60 59 1.0 8.0 0.00 0.00 0.00 54 1021.2
20260509114610 59 349 3.0 10.0 0.00 0.00 0.00 55 1021.3
20260509114014 59 360 4.0 10.0 0.00 0.00 0.00 53 1021.4
20260509113543 59 53 1.0 6.0 0.00 0.00 0.00 55 1021.4
20260509113107 59 325 3.0 9.0 0.00 0.00 0.00 55 1021.3
20260509112528 59 54 3.0 8.0 0.00 0.00 0.00 55 1021.4
20260509112049 58 87 1.0 8.0 0.00 0.00 0.00 54 1021.3
20260509111504 58 22 2.0 8.0 0.00 0.00 0.00 54 1021.4
20260509111022 59 146 0.0 3.0 0.00 0.00 0.00 51 1021.4
20260509110541 59 46 0.0 3.0 0.00 0.00 0.00 51 1021.5
20260509110108 59 58 0.0 3.0 0.00 0.00 0.00 53 1021.5
20260509105525 58 42 0.0 4.0 0.00 0.00 0.00 50 1021.5
20260509105044 58 60 0.0 4.0 0.00 0.00 0.00 50 1021.5
20260509104513 59 65 0.0 4.0 0.00 0.00 0.00 50 1021.5
20260509104028 59 41 1.0 6.0 0.00 0.00 0.00 49 1021.5
20260509103547 59 344 0.0 6.0 0.00 0.00 0.00 51 1021.5
20260509103004 59 149 1.0 4.0 0.00 0.00 0.00 51 1021.4
20260509102533 58 32 0.0 9.0 0.00 0.00 0.00 55 1021.5
20260509102052 58 22 3.0 9.0 0.00 0.00 0.00 54 1021.6
20260509101518 58 61 4.0 8.0 0.00 0.00 0.00 56 1021.6
20260509101028 58 61 3.0 7.0 0.00 0.00 0.00 56 1021.5
20260509100548 59 76 1.0 4.0 0.00 0.00 0.00 55 1021.6
20260509100005 60 90 0.0 4.0 0.00 0.00 0.00 51 1021.6
20260509095533 60 5 1.0 6.0 0.00 0.00 0.00 51 1021.6
20260509095052 60 346 1.0 6.0 0.00 0.00 0.00 50 1021.7
20260509094520 58 10 0.0 4.0 0.00 0.00 0.00 55 1021.7
20260509094039 58 328 0.0 4.0 0.00 0.00 0.00 55 1021.8
20260509093557 57 27 1.0 4.0 0.00 0.00 0.00 54 1021.7
20260509093019 57 119 0.0 6.0 0.00 0.00 0.00 56 1021.7
20260509092546 57 50 2.0 6.0 0.00 0.00 0.00 54 1021.8
20260509092103 57 79 3.0 8.0 0.00 0.00 0.00 52 1021.7
20260509091528 57 14 3.0 8.0 0.00 0.00 0.00 56 1021.7
20260509091046 56 68 0.0 5.0 0.00 0.00 0.00 59 1021.6
20260509090514 56 67 1.0 6.0 0.00 0.00 0.00 59 1021.7
20260509090032 56 32 1.0 5.0 0.00 0.00 0.00 64 1021.7
20260509085549 56 325 0.0 3.0 0.00 0.00 0.00 64 1021.6
20260509085006 56 262 1.0 4.0 0.00 0.00 0.00 65 1021.6
20260509084538 56 94 0.0 4.0 0.00 0.00 0.00 64 1021.6
20260509084055 56 61 0.0 4.0 0.00 0.00 0.00 66 1021.7
20260509083516 55 5 0.0 3.0 0.00 0.00 0.00 66 1021.6
20260509083031 55 45 0.0 3.0 0.00 0.00 0.00 66 1021.6
20260509082550 55 15 0.0 4.0 0.00 0.00 0.00 66 1021.7
20260509082006 55 53 1.0 3.0 0.00 0.00 0.00 67 1021.6
20260509081536 56 51 0.0 6.0 0.00 0.00 0.00 66 1021.6
20260509081041 56 46 2.0 6.0 0.00 0.00 0.00 63 1021.6
20260509080602 57 74 2.0 6.0 0.00 0.00 0.00 63 1021.6
20260509080026 57 77 3.0 6.0 0.00 0.00 0.00 62 1021.6
20260509075543 57 42 2.0 6.0 0.00 0.00 0.00 63 1021.6
20260509075009 58 5 2.0 8.0 0.00 0.00 0.00 63 1021.7
20260509074528 57 41 4.0 8.0 0.00 0.00 0.00 64 1021.6
20260509074050 57 325 0.0 3.0 0.00 0.00 0.00 63 1021.6
20260509073504 57 24 1.0 5.0 0.00 0.00 0.00 63 1021.5
20260509073023 56 346 2.0 5.0 0.00 0.00 0.00 60 1021.6
20260509072544 56 150 0.0 3.0 0.00 0.00 0.00 61 1021.6
20260509072101 56 351 1.0 4.0 0.00 0.00 0.00 62 1021.6
20260509071519 56 240 0.0 4.0 0.00 0.00 0.00 62 1021.6
20260509071036 56 63 0.0 3.0 0.00 0.00 0.00 62 1021.6
20260509070556 56 54 1.0 3.0 0.00 0.00 0.00 62 1021.6
20260509070023 55 335 0.0 2.0 0.00 0.00 0.00 62 1021.8
20260509065542 55 277 0.0 2.0 0.00 0.00 0.00 63 1021.7
20260509065055 55 9 0.0 3.0 0.00 0.00 0.00 61 1021.7
20260509064512 55 340 0.0 1.0 0.00 0.00 0.00 64 1021.8
20260509064043 54 332 0.0 3.0 0.00 0.00 0.00 67 1021.8
20260509063602 54 294 0.0 3.0 0.00 0.00 0.00 67 1021.7
20260509063027 54 342 1.0 3.0 0.00 0.00 0.00 70 1021.7
20260509062546 54 343 0.0 4.0 0.00 0.00 0.00 71 1021.7
20260509062003 53 9 0.0 2.0 0.00 0.00 0.00 73 1021.5
20260509061630 53 13 0.0 3.0 0.00 0.00 0.00 73 1021.6
20260509061046 52 256 0.0 3.0 0.00 0.00 0.00 73 1021.6
20260509060512 52 273 0.0 0.0 0.00 0.00 0.00 72 1021.6
20260509060032 52 322 0.0 0.0 0.00 0.00 0.00 74 1021.7
20260509055553 52 282 0.0 0.0 0.00 0.00 0.00 75 1021.5
20260509055010 51 278 0.0 0.0 0.00 0.00 0.00 76 1021.6
20260509054540 51 360 0.0 0.0 0.00 0.00 0.00 78 1021.6
20260509054047 51 336 0.0 1.0 0.00 0.00 0.00 79 1021.5
20260509053516 50 309 0.0 2.0 0.00 0.00 0.00 80 1021.4
20260509053115 50 205 0.0 0.0 0.00 0.00 0.00 81 1021.4
20260509052555 49 205 0.0 0.0 0.00 0.00 0.00 84 1021.3
20260509052011 48 278 0.0 0.0 0.00 0.00 0.00 84 1021.4
20260509051527 48 278 0.0 0.0 0.00 0.00 0.00 85 1021.4
20260509051044 47 298 0.0 0.0 0.00 0.00 0.00 86 1021.4
20260509050503 47 298 0.0 0.0 0.00 0.00 0.00 87 1021.5
20260509050040 46 298 0.0 0.0 0.00 0.00 0.00 88 1021.4
20260509045551 46 298 0.0 0.0 0.00 0.00 0.00 89 1021.3
20260509045007 45 298 0.0 0.0 0.00 0.00 0.00 90 1021.3
20260509044527 45 298 0.0 0.0 0.00 0.00 0.00 90 1021.3
20260509044044 45 298 0.0 0.0 0.00 0.00 0.00 90 1021.3
20260509043510 45 298 0.0 0.0 0.00 0.00 0.00 90 1021.3
20260509043029 44 298 0.0 0.0 0.00 0.00 0.00 90 1021.2
20260509042549 44 298 0.0 0.0 0.00 0.00 0.00 90 1021.2
20260509042008 44 315 0.0 0.0 0.00 0.00 0.00 90 1021.2
20260509041535 44 315 0.0 0.0 0.00 0.00 0.00 90 1021.2
20260509041055 43 315 0.0 0.0 0.00 0.00 0.00 90 1021.2
20260509040524 43 315 0.0 0.0 0.00 0.00 0.00 90 1021.1
20260509040046 43 315 0.0 0.0 0.00 0.00 0.00 90 1021.2
20260509035603 43 315 0.0 0.0 0.00 0.00 0.00 90 1021.2
20260509035016 43 315 0.0 0.0 0.00 0.00 0.00 90 1021.2
20260509034544 43 315 0.0 0.0 0.00 0.00 0.00 90 1021.2
20260509034100 43 315 0.0 0.0 0.00 0.00 0.00 90 1021.2
20260509033526 43 315 0.0 0.0 0.00 0.00 0.00 90 1021.2
20260509033046 43 315 0.0 0.0 0.00 0.00 0.00 90 1021.2
20260509032511 43 315 0.0 0.0 0.00 0.00 0.00 90 1021.2
20260509032030 43 315 0.0 0.0 0.00 0.00 0.00 90 1021.2
20260509031550 43 315 0.0 0.0 0.00 0.00 0.00 90 1021.2
20260509031007 43 315 0.0 0.0 0.00 0.00 0.00 90 1021.3
20260509030526 43 315 0.0 0.0 0.00 0.00 0.00 90 1021.3
20260509030043 43 327 0.0 0.0 0.00 0.00 0.00 90 1021.3
20260509025509 42 327 0.0 0.0 0.00 0.00 0.00 90 1021.3
20260509025028 42 327 0.0 0.0 0.00 0.00 0.00 90 1021.2
20260509024548 42 327 0.0 0.0 0.00 0.00 0.00 90 1021.3
20260509024005 42 327 0.0 0.0 0.00 0.00 0.00 90 1021.3
20260509023536 42 327 0.0 0.0 0.00 0.00 0.00 90 1021.3
20260509023053 42 327 0.0 0.0 0.00 0.00 0.00 90 1021.3
20260509022523 42 327 0.0 0.0 0.00 0.00 0.00 90 1021.2
20260509022039 42 327 0.0 0.0 0.00 0.00 0.00 90 1021.2
20260509021601 42 340 0.0 0.0 0.00 0.00 0.00 89 1021.3
20260509021015 41 340 0.0 0.0 0.00 0.00 0.00 89 1021.3
20260509020534 41 340 0.0 0.0 0.00 0.00 0.00 89 1021.3
20260509020055 41 340 0.0 0.0 0.00 0.00 0.00 89 1021.3
20260509015521 41 340 0.0 0.0 0.00 0.00 0.00 89 1021.2
20260509015041 41 340 0.0 0.0 0.00 0.00 0.00 89 1021.3
20260509014506 41 340 0.0 0.0 0.00 0.00 0.00 88 1021.2
20260509014026 41 340 0.0 0.0 0.00 0.00 0.00 88 1021.3
20260509013546 41 340 0.0 0.0 0.00 0.00 0.00 88 1021.2
20260509013003 42 340 0.0 0.0 0.00 0.00 0.00 88 1021.1
20260509012530 42 340 0.0 0.0 0.00 0.00 0.00 88 1021.2
20260509012051 42 340 0.0 0.0 0.00 0.00 0.00 87 1021.2
20260509011516 42 340 0.0 0.0 0.00 0.00 0.00 87 1021.2
20260509011034 42 340 0.0 0.0 0.00 0.00 0.00 87 1021.2
20260509010554 42 340 0.0 0.0 0.00 0.00 0.00 87 1021.2
20260509010014 43 340 0.0 0.0 0.00 0.00 0.00 87 1021.2
20260509005530 43 340 0.0 0.0 0.00 0.00 0.00 87 1021.1
20260509005051 43 340 0.0 0.0 0.00 0.00 0.00 87 1021.2
20260509004505 43 340 0.0 0.0 0.00 0.00 0.00 86 1021.2
20260509004035 44 340 0.0 0.0 0.00 0.00 0.00 86 1021.2
20260509003555 44 340 0.0 0.0 0.00 0.00 0.00 86 1021.1
20260509003012 44 340 0.0 0.0 0.00 0.00 0.00 86 1021.1
20260509002539 45 340 0.0 0.0 0.00 0.00 0.00 86 1021.1
20260509002049 45 340 0.0 0.0 0.00 0.00 0.00 86 1021.1
20260509001506 45 340 0.0 0.0 0.00 0.00 0.00 86 1021.1
20260509001025 45 340 0.0 0.0 0.00 0.00 0.00 86 1021.1
20260509000547 46 340 0.0 0.0 0.00 0.00 0.00 86 1021.2
20260509000011 46 340 0.0 0.0 0.00 0.00 0.00 86 1021.1
20260508235538 46 340 0.0 0.0 0.00 0.00 0.00 86 1021.2
20260508235052 46 340 0.0 0.0 0.00 0.00 0.00 86 1021.2
20260508234510 46 340 0.0 0.0 0.00 0.00 0.00 86 1021.3
20260508234041 47 340 0.0 0.0 0.00 0.00 0.00 86 1021.3
20260508233600 47 340 0.0 0.0 0.00 0.00 0.00 86 1021.3
20260508233026 47 340 0.0 0.0 0.00 0.00 0.00 86 1021.3
20260508232543 47 340 0.0 0.0 0.00 0.00 0.00 86 1021.4
20260508232009 47 340 0.0 0.0 0.00 0.00 0.00 86 1021.4
20260508231530 47 340 0.0 0.0 0.00 0.00 0.00 86 1021.4
20260508231050 47 340 0.0 2.0 0.00 0.00 0.00 86 1021.4
20260508230508 47 340 0.0 4.0 0.00 0.00 0.00 86 1021.4
20260508230021 47 333 0.0 3.0 0.00 0.00 0.00 86 1021.4
20260508225540 47 355 0.0 0.0 0.00 0.02 0.00 86 1021.3
20260508225058 47 355 0.0 0.0 0.00 0.02 0.00 85 1021.4
20260508224512 47 34 0.0 0.0 0.00 0.02 0.00 85 1021.3
20260508224032 47 34 0.0 0.0 0.00 0.02 0.00 85 1021.3
20260508223551 48 34 0.0 0.0 0.00 0.02 0.00 85 1021.3
20260508223013 48 55 0.0 0.0 0.00 0.02 0.00 84 1021.2
20260508222528 48 55 0.0 0.0 0.00 0.02 0.00 85 1021.1
20260508222050 48 55 0.0 0.0 0.00 0.02 0.00 85 1021.2
20260508221515 48 55 0.0 0.0 0.00 0.02 0.00 84 1021.3
20260508221031 48 55 0.0 0.0 0.00 0.02 0.00 84 1021.3
20260508220549 48 55 0.0 0.0 0.00 0.02 0.00 84 1021.3
20260508220005 48 55 0.0 0.0 0.00 0.02 0.00 84 1021.3
20260508215535 49 55 0.0 0.0 0.00 0.04 0.02 84 1021.4
20260508215055 49 55 0.0 0.0 0.00 0.04 0.02 84 1021.4
20260508214517 49 55 0.0 0.0 0.00 0.04 0.02 83 1021.4
20260508214033 49 55 0.0 0.0 0.00 0.04 0.02 83 1021.4
20260508213553 49 55 0.0 0.0 0.00 0.04 0.02 84 1021.4
20260508213010 49 55 0.0 0.0 0.00 0.04 0.02 83 1021.3
20260508212540 49 55 0.0 0.0 0.00 0.04 0.02 83 1021.4
20260508212100 49 55 0.0 0.0 0.00 0.04 0.02 83 1021.3
20260508211529 49 55 0.0 0.0 0.00 0.04 0.02 83 1021.3
20260508211050 49 55 0.0 0.0 0.00 0.04 0.02 83 1021.3
20260508210512 49 55 0.0 0.0 0.00 0.04 0.02 83 1021.4
20260508210033 49 55 0.0 0.0 0.00 0.04 0.02 82 1021.4
20260508205551 49 55 0.0 0.0 0.00 0.05 0.02 82 1021.4
20260508205058 49 55 0.0 0.0 0.00 0.05 0.02 81 1021.4
20260508204515 49 55 0.0 0.0 0.00 0.05 0.02 81 1021.4
20260508204036 49 55 0.0 0.0 0.00 0.05 0.02 81 1021.4
20260508203558 50 55 0.0 0.0 0.00 0.05 0.02 81 1021.3
20260508203103 50 55 0.0 0.0 0.00 0.05 0.02 81 1021.3
20260508202519 50 55 0.0 0.0 0.00 0.05 0.02 80 1021.3
20260508202029 50 55 0.0 0.0 0.00 0.05 0.02 80 1021.3
20260508201550 50 55 0.0 0.0 0.00 0.05 0.02 80 1021.3
20260508201009 50 55 0.0 0.0 0.00 0.05 0.02 79 1021.3
20260508200523 50 55 0.0 0.0 0.00 0.05 0.02 78 1021.2
20260508200055 50 55 0.0 0.0 0.00 0.05 0.02 77 1021.2
20260508195603 50 55 0.0 0.0 0.00 0.05 0.02 77 1021.2
20260508195017 50 55 0.0 0.0 0.00 0.05 0.02 77 1021.2
20260508194538 50 55 0.0 0.0 0.00 0.05 0.02 77 1021.2
20260508194102 50 55 0.0 0.0 0.00 0.05 0.02 77 1021.1
20260508193523 50 55 0.0 0.0 0.00 0.05 0.02 77 1021.1
20260508193053 50 55 0.0 0.0 0.00 0.05 0.02 77 1021.1
20260508192510 50 55 0.0 2.0 0.00 0.05 0.02 77 1021.1
20260508192040 50 55 0.0 3.0 0.00 0.05 0.02 76 1021.0
20260508191600 50 67 1.0 4.0 0.00 0.05 0.02 76 1021.1
20260508191015 50 71 2.0 4.0 0.00 0.05 0.02 76 1021.0
20260508190538 50 51 1.0 3.0 0.00 0.05 0.02 76 1020.9
20260508190058 51 55 1.0 3.0 0.00 0.05 0.02 75 1021.0
20260508185520 51 43 1.0 4.0 0.00 0.05 0.02 75 1020.9
20260508185041 51 55 1.0 4.0 0.00 0.05 0.02 75 1020.9
20260508184507 51 60 1.0 3.0 0.00 0.05 0.02 74 1020.9
20260508184025 51 63 1.0 5.0 0.00 0.05 0.02 74 1020.9
20260508183544 51 63 1.0 5.0 0.00 0.05 0.02 74 1020.9
20260508183109 51 49 2.0 5.0 0.00 0.05 0.02 73 1020.9
20260508182520 51 71 1.0 5.0 0.00 0.05 0.02 73 1020.7
20260508182034 51 77 2.0 5.0 0.00 0.05 0.02 72 1020.7
20260508181543 51 65 1.0 4.0 0.00 0.05 0.02 72 1020.6
20260508181102 51 50 1.0 4.0 0.00 0.05 0.02 71 1020.5
20260508180527 51 55 1.0 4.0 0.00 0.05 0.02 71 1020.5
20260508180048 51 53 1.0 4.0 0.00 0.05 0.02 71 1020.4
20260508175515 51 38 1.0 3.0 0.00 0.05 0.02 71 1020.4
20260508175034 52 74 1.0 3.0 0.00 0.05 0.02 71 1020.4
20260508174601 52 30 0.0 3.0 0.00 0.05 0.02 71 1020.5
20260508174007 52 51 0.0 2.0 0.00 0.05 0.02 71 1020.5
20260508173536 52 51 0.0 3.0 0.00 0.05 0.02 71 1020.4
20260508173053 52 42 1.0 3.0 0.00 0.05 0.02 71 1020.3
20260508172516 52 36 0.0 4.0 0.00 0.05 0.02 70 1020.4
20260508172037 52 63 2.0 4.0 0.00 0.05 0.02 70 1020.4
20260508171559 52 56 1.0 3.0 0.00 0.05 0.02 70 1020.3
20260508171022 52 57 1.0 4.0 0.00 0.05 0.02 70 1020.3
20260508170540 52 74 3.0 4.0 0.00 0.05 0.02 70 1020.2
20260508170058 52 74 2.0 4.0 0.00 0.05 0.02 70 1020.2
20260508165513 52 63 1.0 4.0 0.00 0.06 0.02 71 1020.3
20260508165041 52 65 1.0 3.0 0.00 0.06 0.02 70 1020.1
20260508164605 52 101 1.0 4.0 0.00 0.06 0.02 70 1020.1
20260508164026 52 60 2.0 4.0 0.00 0.06 0.02 71 1020.1
20260508163545 52 9 1.0 4.0 0.00 0.06 0.02 71 1020.3
20260508163124 52 5 2.0 4.0 0.00 0.06 0.02 70 1020.2
20260508162526 52 72 0.0 3.0 0.00 0.06 0.02 71 1020.2
20260508162045 52 46 0.0 4.0 0.00 0.06 0.02 70 1020.3
20260508161512 53 53 2.0 4.0 0.00 0.06 0.02 70 1020.3
20260508161030 53 69 1.0 4.0 0.00 0.06 0.02 69 1020.3
20260508160536 53 46 2.0 5.0 0.00 0.06 0.02 69 1020.2
20260508160053 53 29 2.0 5.0 0.00 0.06 0.02 68 1020.1
20260508155520 53 355 1.0 4.0 0.00 0.09 0.02 68 1020.2
20260508155037 53 27 0.0 8.0 0.00 0.09 0.02 67 1020.3
20260508154555 53 65 3.0 8.0 0.00 0.09 0.02 67 1020.2
20260508154013 53 44 2.0 3.0 0.00 0.09 0.02 68 1020.1
20260508153538 53 360 0.0 5.0 0.00 0.09 0.02 67 1020.1
20260508153059 53 16 3.0 5.0 0.00 0.09 0.02 68 1020.0
20260508152514 53 67 2.0 7.0 0.00 0.09 0.02 68 1020.0
20260508152037 53 58 3.0 7.0 0.00 0.09 0.02 68 1020.1
20260508151551 53 348 0.0 6.0 0.00 0.09 0.02 69 1020.2
20260508151018 53 97 3.0 6.0 0.00 0.09 0.02 67 1020.2
20260508150529 53 121 2.0 6.0 0.00 0.09 0.02 67 1020.2
20260508150046 53 70 2.0 9.0 0.00 0.09 0.02 68 1020.3
20260508145602 53 66 2.0 9.0 0.00 0.11 0.02 67 1020.4
20260508145016 53 61 3.0 6.0 0.00 0.11 0.02 67 1020.3
20260508144542 53 101 2.0 6.0 0.00 0.11 0.02 68 1020.4
20260508144004 53 26 2.0 6.0 0.00 0.11 0.02 67 1020.2
20260508143519 54 43 1.0 10.0 0.00 0.11 0.02 67 1020.2